Location: Atherton
(17.2661°S, 145.4859°E)
Time: 03:34:33
(UTC+10:00)

Hubble Space Telescope - Pass Details

Date: 17 February 2026
Orbit: 476 x 479 km, 28.5° (Epoch: 6 March)

Event Time Altitude Azimuth Distance (km) Brightness Sun altitude
Rises 20:22:35 0° 240° (WSW) 2,524 5.7 -21.8°
Reaches altitude 10° 20:25:35 10° 214° (SW) 1,646 4.0 -22.5°
Maximum altitude 20:27:46 15° 179° (S) 1,386 3.1 -23.0°
Enters shadow 20:28:34 14° 164° (SSE) 1,424 3.0 -23.2°
